| time (UTC) | temp C | wind direction | speed KPH | gust KPH | rain 1hr cm | rain 24hr cm | rain mn cm | humidity % | barometer mb |
| 20260903074415 | 25 | 108 | 6.4 | 37.0 | 0.00 | 1.30 | 1.30 | 82 | 1016.0 |
| 20260903074144 | 26 | 98 | 12.9 | 33.8 | 0.00 | 1.30 | 1.30 | 82 | 1016.2 |
| 20260903073411 | 26 | 115 | 19.3 | 33.8 | 0.00 | 1.30 | 1.30 | 81 | 1015.9 |
| 20260903072907 | 26 | 131 | 11.3 | 33.8 | 0.00 | 1.30 | 1.30 | 81 | 1016.2 |
| 20260903072407 | 26 | 103 | 14.5 | 37.0 | 0.00 | 1.30 | 1.30 | 81 | 1016.2 |
| 20260903071907 | 26 | 95 | 17.7 | 37.0 | 0.00 | 1.30 | 1.30 | 81 | 1016.1 |
| 20260903071405 | 26 | 105 | 19.3 | 41.8 | 0.00 | 1.30 | 1.30 | 81 | 1016.0 |
| 20260903070905 | 26 | 96 | 17.7 | 41.8 | 0.00 | 1.30 | 1.30 | 80 | 1015.9 |
| 20260903070632 | 26 | 80 | 17.7 | 30.6 | 0.00 | 1.30 | 1.30 | 79 | 1015.8 |
| 20260903065900 | 26 | 89 | 16.1 | 27.4 | 0.00 | 1.30 | 1.30 | 80 | 1015.9 |
| 20260903065400 | 26 | 80 | 17.7 | 33.8 | 0.00 | 1.30 | 1.30 | 79 | 1015.7 |
| 20260903064859 | 26 | 114 | 11.3 | 33.8 | 0.00 | 1.30 | 1.30 | 79 | 1015.8 |
| 20260903064356 | 26 | 65 | 14.5 | 32.2 | 0.00 | 1.30 | 1.30 | 80 | 1016.0 |
| 20260903063856 | 26 | 103 | 14.5 | 32.2 | 0.00 | 1.30 | 1.30 | 80 | 1015.8 |
| 20260903063354 | 26 | 82 | 17.7 | 37.0 | 0.00 | 1.30 | 1.30 | 79 | 1015.7 |
| 20260903062851 | 26 | 116 | 14.5 | 37.0 | 0.00 | 1.30 | 1.30 | 79 | 1015.8 |
| 20260903062352 | 26 | 100 | 17.7 | 32.2 | 0.00 | 1.30 | 1.30 | 79 | 1015.6 |
| 20260903061849 | 26 | 60 | 16.1 | 40.2 | 0.00 | 1.30 | 1.30 | 79 | 1015.4 |
| 20260903061619 | 26 | 111 | 11.3 | 40.2 | 0.00 | 1.30 | 1.30 | 79 | 1015.6 |
| 20260903060848 | 26 | 84 | 16.1 | 32.2 | 0.00 | 1.30 | 1.30 | 79 | 1015.4 |
| 20260903060618 | 26 | 69 | 17.7 | 33.8 | 0.00 | 1.30 | 1.30 | 79 | 1015.5 |
| 20260903055850 | 26 | 115 | 14.5 | 40.2 | 0.00 | 1.30 | 1.30 | 79 | 1015.3 |
| 20260903055623 | 26 | 140 | 16.1 | 25.7 | 0.00 | 1.30 | 1.30 | 79 | 1015.6 |
| 20260903055346 | 26 | 122 | 8.0 | 40.2 | 0.00 | 1.30 | 1.30 | 79 | 1015.3 |
| 20260903054615 | 26 | 130 | 16.1 | 32.2 | 0.00 | 1.30 | 1.30 | 79 | 1015.5 |
| 20260903053844 | 26 | 96 | 20.9 | 32.2 | 0.00 | 1.30 | 1.30 | 79 | 1015.3 |
| 20260903053344 | 26 | 96 | 11.3 | 30.6 | 0.00 | 1.30 | 1.30 | 79 | 1015.3 |
| 20260903052831 | 26 | 111 | 16.1 | 32.2 | 0.00 | 1.30 | 1.30 | 79 | 1015.1 |
| 20260903052331 | 26 | 88 | 22.5 | 33.8 | 0.00 | 1.30 | 1.30 | 79 | 1015.1 |
| 20260903052103 | 26 | 106 | 22.5 | 33.8 | 0.00 | 1.30 | 1.30 | 79 | 1014.9 |
| 20260903051331 | 26 | 122 | 14.5 | 27.4 | 0.00 | 1.30 | 1.30 | 80 | 1014.9 |
| 20260903050831 | 26 | 117 | 9.7 | 27.4 | 0.00 | 1.30 | 1.30 | 81 | 1014.7 |
| 20260903050336 | 26 | 82 | 4.8 | 30.6 | 0.00 | 1.30 | 1.30 | 80 | 1014.6 |
| 20260903050330 | 26 | 115 | 17.7 | 27.4 | 0.00 | 1.30 | 1.30 | 81 | 1014.6 |
| 20260903045331 | 26 | 84 | 14.5 | 30.6 | 0.00 | 1.30 | 1.30 | 80 | 1014.6 |
| 20260903044831 | 26 | 127 | 12.9 | 30.6 | 0.00 | 1.30 | 1.30 | 79 | 1014.4 |
| 20260903044331 | 26 | 51 | 9.7 | 30.6 | 0.00 | 1.30 | 1.30 | 79 | 1014.7 |
| 20260903043831 | 26 | 94 | 11.3 | 27.4 | 0.00 | 1.30 | 1.30 | 78 | 1014.6 |
| 20260903043331 | 26 | 111 | 11.3 | 27.4 | 0.00 | 1.30 | 1.30 | 78 | 1014.6 |
| 20260903042831 | 26 | 106 | 6.4 | 27.4 | 0.00 | 1.30 | 1.30 | 78 | 1014.4 |
| 20260903042331 | 26 | 87 | 14.5 | 27.4 | 0.00 | 1.30 | 1.30 | 77 | 1014.2 |
| 20260903042108 | 26 | 105 | 14.5 | 27.4 | 0.00 | 1.30 | 1.30 | 77 | 1014.5 |
| 20260903041831 | 26 | 143 | 14.5 | 27.4 | 0.00 | 1.30 | 1.30 | 77 | 1014.4 |
| 20260903040832 | 26 | 114 | 14.5 | 32.2 | 0.00 | 1.30 | 1.30 | 78 | 1014.4 |
| 20260903040331 | 26 | 115 | 6.4 | 37.0 | 0.00 | 1.30 | 1.30 | 77 | 1014.3 |
| 20260903035830 | 26 | 105 | 9.7 | 37.0 | 0.00 | 1.30 | 1.30 | 77 | 1014.6 |
| 20260903035330 | 27 | 117 | 17.7 | 30.6 | 0.00 | 1.30 | 1.30 | 77 | 1014.4 |
| 20260903034830 | 27 | 105 | 14.5 | 30.6 | 0.00 | 1.30 | 1.30 | 76 | 1014.3 |
| 20260903034330 | 27 | 129 | 17.7 | 32.2 | 0.00 | 1.30 | 1.30 | 75 | 1014.1 |
| 20260903033832 | 27 | 44 | 12.9 | 33.8 | 0.00 | 1.30 | 1.30 | 75 | 1014.2 |
| 20260903033549 | 27 | 80 | 17.7 | 33.8 | 0.00 | 1.30 | 1.30 | 75 | 1013.8 |
| 20260903032818 | 27 | 90 | 19.3 | 30.6 | 0.00 | 1.30 | 1.30 | 76 | 1014.0 |
| 20260903032318 | 27 | 65 | 16.1 | 30.6 | 0.00 | 1.30 | 1.30 | 76 | 1014.1 |
| 20260903031818 | 27 | 65 | 11.3 | 30.6 | 0.00 | 1.30 | 1.30 | 77 | 1013.9 |
| 20260903031319 | 27 | 93 | 17.7 | 32.2 | 0.00 | 1.30 | 1.30 | 76 | 1014.1 |
| 20260903030819 | 27 | 86 | 17.7 | 32.2 | 0.00 | 1.30 | 1.30 | 75 | 1014.1 |
| 20260903030319 | 27 | 124 | 9.7 | 27.4 | 0.00 | 1.30 | 1.30 | 75 | 1014.1 |
| 20260903025819 | 27 | 92 | 6.4 | 27.4 | 0.00 | 1.30 | 1.30 | 73 | 1014.0 |
| 20260903025318 | 27 | 102 | 12.9 | 27.4 | 0.00 | 1.30 | 1.30 | 74 | 1013.9 |
| 20260903024818 | 27 | 110 | 16.1 | 30.6 | 0.00 | 1.30 | 1.30 | 73 | 1013.8 |
| 20260903024318 | 27 | 87 | 16.1 | 32.2 | 0.00 | 1.30 | 1.30 | 73 | 1014.0 |
| 20260903023818 | 28 | 117 | 17.7 | 32.2 | 0.00 | 1.30 | 1.30 | 73 | 1014.2 |
| 20260903023319 | 27 | 104 | 6.4 | 25.7 | 0.00 | 1.30 | 1.30 | 75 | 1014.0 |
| 20260903022819 | 27 | 90 | 11.3 | 32.2 | 0.00 | 1.30 | 1.30 | 75 | 1014.2 |
| 20260903022318 | 27 | 75 | 20.9 | 32.2 | 0.00 | 1.30 | 1.30 | 76 | 1014.1 |
| 20260903022050 | 28 | 91 | 19.3 | 27.4 | 0.00 | 1.30 | 1.30 | 75 | 1014.0 |
| 20260903021319 | 27 | 83 | 6.4 | 27.4 | 0.00 | 1.30 | 1.30 | 76 | 1014.1 |
| 20260903020819 | 27 | 119 | 14.5 | 30.6 | 0.00 | 1.30 | 1.30 | 76 | 1013.7 |
| 20260903020318 | 28 | 106 | 12.9 | 33.8 | 0.00 | 1.30 | 1.30 | 75 | 1014.1 |
| 20260903015818 | 28 | 76 | 14.5 | 33.8 | 0.00 | 1.30 | 1.30 | 75 | 1013.9 |
| 20260903015318 | 28 | 92 | 14.5 | 27.4 | 0.00 | 1.30 | 1.30 | 74 | 1014.2 |
| 20260903014819 | 28 | 115 | 14.5 | 24.1 | 0.00 | 1.30 | 1.30 | 74 | 1014.0 |
| 20260903014319 | 28 | 111 | 9.7 | 25.7 | 0.00 | 1.30 | 1.30 | 74 | 1014.0 |
| 20260903013819 | 28 | 90 | 17.7 | 30.6 | 0.00 | 1.30 | 1.30 | 74 | 1014.2 |
| 20260903013319 | 28 | 102 | 9.7 | 30.6 | 0.00 | 1.30 | 1.30 | 74 | 1013.9 |
| 20260903012818 | 28 | 71 | 14.5 | 27.4 | 0.00 | 1.30 | 1.30 | 73 | 1014.0 |
| 20260903012319 | 28 | 104 | 19.3 | 25.7 | 0.00 | 1.30 | 1.30 | 74 | 1013.7 |
| 20260903011818 | 28 | 111 | 8.0 | 32.2 | 0.00 | 1.30 | 1.30 | 72 | 1013.9 |
| 20260903011318 | 28 | 110 | 9.7 | 32.2 | 0.00 | 1.30 | 1.30 | 73 | 1013.8 |
| 20260903010820 | 28 | 105 | 14.5 | 30.6 | 0.00 | 1.30 | 1.30 | 73 | 1014.1 |
| 20260903010319 | 28 | 90 | 14.5 | 27.4 | 0.00 | 1.30 | 1.30 | 74 | 1014.1 |
| 20260903005818 | 28 | 64 | 11.3 | 32.2 | 0.00 | 1.30 | 1.30 | 73 | 1014.0 |
| 20260903005319 | 28 | 113 | 24.1 | 32.2 | 0.00 | 1.30 | 1.30 | 73 | 1014.1 |
| 20260903004818 | 28 | 103 | 17.7 | 32.2 | 0.00 | 1.30 | 1.30 | 73 | 1014.1 |
| 20260903004319 | 28 | 67 | 17.7 | 32.2 | 0.00 | 1.30 | 1.30 | 74 | 1014.0 |
| 20260903004050 | 28 | 101 | 20.9 | 30.6 | 0.00 | 1.30 | 1.30 | 74 | 1013.9 |
| 20260903003318 | 28 | 102 | 8.0 | 32.2 | 0.00 | 1.30 | 1.30 | 75 | 1013.9 |
| 20260903003049 | 28 | 87 | 17.7 | 32.2 | 0.00 | 1.30 | 1.30 | 74 | 1014.1 |
| 20260903002321 | 28 | 75 | 9.7 | 33.8 | 0.00 | 1.30 | 1.30 | 75 | 1014.0 |
| 20260903001819 | 28 | 77 | 20.9 | 33.8 | 0.00 | 1.30 | 1.30 | 75 | 1014.3 |
| 20260903001319 | 28 | 51 | 11.3 | 30.6 | 0.00 | 1.30 | 1.30 | 76 | 1014.1 |
| 20260903001049 | 28 | 103 | 11.3 | 33.8 | 0.00 | 1.30 | 1.30 | 76 | 1014.2 |
| 20260903000318 | 28 | 70 | 16.1 | 33.8 | 0.00 | 1.30 | 1.30 | 77 | 1014.3 |
| 20260902235817 | 28 | 81 | 16.1 | 33.8 | 0.00 | 1.30 | 1.30 | 77 | 1014.4 |
| 20260902235319 | 28 | 51 | 14.5 | 33.8 | 0.00 | 1.30 | 1.30 | 76 | 1014.6 |
| 20260902234817 | 28 | 78 | 19.3 | 33.8 | 0.00 | 1.30 | 1.30 | 76 | 1014.5 |
| 20260902234317 | 28 | 72 | 9.7 | 30.6 | 0.00 | 1.30 | 1.30 | 77 | 1014.5 |
| 20260902233817 | 28 | 132 | 11.3 | 30.6 | 0.00 | 1.30 | 1.30 | 76 | 1014.5 |
| 20260902233317 | 28 | 108 | 16.1 | 33.8 | 0.00 | 1.30 | 1.30 | 77 | 1014.8 |
| 20260902232817 | 28 | 80 | 24.1 | 33.8 | 0.00 | 1.30 | 1.30 | 75 | 1014.7 |
| 20260902232548 | 28 | 73 | 9.7 | 37.0 | 0.00 | 1.30 | 1.30 | 75 | 1014.8 |
| 20260902231817 | 28 | 114 | 12.9 | 37.0 | 0.00 | 1.30 | 1.30 | 75 | 1014.7 |
| 20260902231317 | 28 | 84 | 16.1 | 32.2 | 0.00 | 1.30 | 1.30 | 76 | 1014.9 |
| 20260902230817 | 28 | 83 | 9.7 | 33.8 | 0.00 | 1.30 | 1.30 | 77 | 1015.0 |
| 20260902230317 | 28 | 64 | 20.9 | 33.8 | 0.00 | 1.30 | 1.30 | 75 | 1014.9 |
| 20260902225816 | 28 | 88 | 14.5 | 27.4 | 0.00 | 1.30 | 1.30 | 77 | 1014.9 |
| 20260902225316 | 28 | 106 | 17.7 | 27.4 | 0.00 | 1.30 | 1.30 | 76 | 1014.7 |
| 20260902224816 | 28 | 69 | 24.1 | 30.6 | 0.00 | 1.30 | 1.30 | 77 | 1014.8 |
| 20260902224316 | 28 | 93 | 22.5 | 30.6 | 0.00 | 1.30 | 1.30 | 76 | 1015.1 |
| 20260902223817 | 28 | 79 | 17.7 | 30.6 | 0.00 | 1.30 | 1.30 | 76 | 1015.2 |
| 20260902223316 | 28 | 139 | 19.3 | 30.6 | 0.00 | 1.30 | 1.30 | 77 | 1015.1 |
| 20260902222816 | 28 | 119 | 8.0 | 37.0 | 0.00 | 1.30 | 1.30 | 77 | 1015.3 |
| 20260902222317 | 28 | 100 | 12.9 | 37.0 | 0.00 | 1.30 | 1.30 | 78 | 1015.2 |
| 20260902221817 | 28 | 75 | 9.7 | 30.6 | 0.00 | 1.30 | 1.30 | 79 | 1015.2 |
| 20260902221317 | 28 | 94 | 16.1 | 33.8 | 0.00 | 1.30 | 1.30 | 77 | 1015.4 |
| 20260902220819 | 28 | 92 | 12.9 | 32.2 | 0.00 | 1.30 | 1.30 | 78 | 1015.1 |
| 20260902220305 | 28 | 114 | 9.7 | 32.2 | 0.00 | 1.30 | 1.30 | 79 | 1015.3 |
| 20260902215804 | 28 | 91 | 24.1 | 27.4 | 0.00 | 1.30 | 1.30 | 79 | 1015.5 |
| 20260902215306 | 28 | 110 | 19.3 | 27.4 | 0.00 | 1.30 | 1.30 | 80 | 1015.3 |
| 20260902214805 | 28 | 89 | 16.1 | 32.2 | 0.00 | 1.30 | 1.30 | 80 | 1015.4 |
| 20260902214305 | 28 | 50 | 19.3 | 32.2 | 0.00 | 1.30 | 1.30 | 80 | 1015.1 |
| 20260902213804 | 28 | 122 | 19.3 | 30.6 | 0.00 | 1.30 | 1.30 | 80 | 1015.3 |
| 20260902213535 | 28 | 88 | 19.3 | 25.7 | 0.00 | 1.30 | 1.30 | 81 | 1015.3 |
| 20260902212805 | 28 | 66 | 9.7 | 30.6 | 0.00 | 1.30 | 1.30 | 82 | 1015.2 |
| 20260902212253 | 27 | 102 | 9.7 | 30.6 | 0.00 | 1.30 | 1.30 | 82 | 1015.2 |
| 20260902212023 | 27 | 93 | 20.9 | 30.6 | 0.00 | 1.30 | 1.30 | 83 | 1015.2 |
| 20260902211254 | 27 | 140 | 17.7 | 25.7 | 0.00 | 1.30 | 1.30 | 84 | 1015.2 |
| 20260902211023 | 27 | 64 | 12.9 | 24.1 | 0.00 | 1.30 | 1.30 | 85 | 1015.2 |
| 20260902210253 | 26 | 72 | 12.9 | 30.6 | 0.00 | 1.30 | 1.30 | 85 | 1015.3 |
| 20260902205752 | 26 | 117 | 16.1 | 30.6 | 0.00 | 1.30 | 1.30 | 86 | 1015.5 |
| 20260902205252 | 26 | 107 | 14.5 | 30.6 | 0.00 | 1.30 | 1.30 | 86 | 1015.3 |
| 20260902204740 | 26 | 113 | 8.0 | 22.5 | 0.03 | 1.30 | 1.30 | 87 | 1015.4 |
| 20260902204500 | 26 | 106 | 12.9 | 22.5 | 0.03 | 1.30 | 1.30 | 87 | 1015.7 |
| 20260902203728 | 26 | 89 | 14.5 | 20.9 | 0.03 | 1.30 | 1.30 | 87 | 1015.5 |
| 20260902203235 | 26 | 107 | 12.9 | 22.5 | 0.03 | 1.30 | 1.30 | 88 | 1015.6 |
| 20260902203229 | 26 | 148 | 6.4 | 24.1 | 0.03 | 1.30 | 1.30 | 88 | 1015.5 |
| 20260902202500 | 26 | 102 | 11.3 | 22.5 | 0.03 | 1.30 | 1.30 | 88 | 1015.8 |
| 20260902201730 | 25 | 104 | 9.7 | 25.7 | 0.03 | 1.30 | 1.30 | 89 | 1015.6 |
| 20260902201229 | 25 | 93 | 6.4 | 27.4 | 0.03 | 1.30 | 1.30 | 89 | 1015.6 |
| 20260902200729 | 25 | 64 | 11.3 | 30.6 | 0.03 | 1.30 | 1.30 | 89 | 1015.6 |
| 20260902200229 | 25 | 109 | 17.7 | 46.7 | 0.03 | 1.30 | 1.30 | 88 | 1015.6 |
| 20260902195728 | 25 | 105 | 17.7 | 46.7 | 0.03 | 1.30 | 1.30 | 89 | 1015.7 |
| 20260902195229 | 25 | 63 | 17.7 | 38.6 | 0.00 | 1.30 | 1.27 | 89 | 1015.9 |
| 20260902194729 | 25 | 115 | 9.7 | 32.2 | 0.00 | 1.27 | 1.27 | 90 | 1015.7 |
| 20260902194229 | 25 | 69 | 14.5 | 25.7 | 0.00 | 1.27 | 1.27 | 91 | 1015.6 |
| 20260902193729 | 25 | 98 | 4.8 | 25.7 | 0.00 | 1.27 | 1.27 | 91 | 1015.8 |
| 20260902193228 | 25 | 100 | 6.4 | 30.6 | 0.03 | 1.27 | 1.27 | 91 | 1015.8 |
| 20260902193001 | 25 | 95 | 16.1 | 37.0 | 0.05 | 1.27 | 1.27 | 91 | 1015.6 |
| 20260902192229 | 25 | 115 | 16.1 | 37.0 | 0.08 | 1.27 | 1.27 | 92 | 1015.7 |
| 20260902191729 | 24 | 67 | 14.5 | 37.0 | 0.18 | 1.27 | 1.27 | 92 | 1015.8 |
| 20260902191228 | 24 | 35 | 16.1 | 30.6 | 0.28 | 1.27 | 1.27 | 92 | 1015.6 |
| 20260902190729 | 24 | 44 | 12.9 | 32.2 | 0.38 | 1.27 | 1.27 | 92 | 1015.6 |
| 20260902190228 | 24 | 58 | 17.7 | 33.8 | 0.48 | 1.27 | 1.27 | 92 | 1015.8 |
| 20260902185728 | 24 | 62 | 17.7 | 38.6 | 0.66 | 1.27 | 1.27 | 92 | 1015.6 |
| 20260902185229 | 23 | 114 | 12.9 | 38.6 | 0.89 | 1.27 | 1.27 | 92 | 1015.4 |
| 20260902184730 | 23 | 87 | 20.9 | 32.2 | 1.07 | 1.27 | 1.27 | 92 | 1015.5 |
| 20260902184229 | 23 | 90 | 22.5 | 33.8 | 1.09 | 1.27 | 1.27 | 93 | 1015.6 |
| 20260902183729 | 23 | 77 | 16.1 | 40.2 | 1.12 | 1.27 | 1.27 | 93 | 1015.8 |
| 20260902183229 | 23 | 73 | 17.7 | 45.1 | 1.12 | 1.27 | 1.24 | 93 | 1015.6 |
| 20260902182728 | 23 | 59 | 17.7 | 45.1 | 1.12 | 1.24 | 1.22 | 93 | 1015.5 |
| 20260902182228 | 24 | 50 | 22.5 | 33.8 | 1.07 | 1.19 | 1.22 | 93 | 1015.7 |
| 20260902181728 | 24 | 87 | 12.9 | 30.6 | 0.99 | 1.12 | 1.12 | 93 | 1015.5 |
| 20260902181229 | 24 | 70 | 8.0 | 30.6 | 0.86 | 0.99 | 0.99 | 92 | 1015.9 |
| 20260902180729 | 24 | 55 | 9.7 | 53.1 | 0.76 | 0.89 | 0.89 | 92 | 1015.5 |
| 20260902180231 | 24 | 135 | 12.9 | 53.1 | 0.66 | 0.79 | 0.79 | 92 | 1015.6 |
| 20260902175737 | 24 | 84 | 17.7 | 27.4 | 0.25 | 0.38 | 0.38 | 92 | 1015.4 |
| 20260902175730 | 24 | 116 | 11.3 | 32.2 | 0.51 | 0.64 | 0.61 | 92 | 1015.6 |
| 20260902175001 | 25 | 91 | 19.3 | 27.4 | 0.08 | 0.20 | 0.23 | 91 | 1015.3 |
| 20260902174229 | 25 | 75 | 4.8 | 25.7 | 0.05 | 0.18 | 0.18 | 91 | 1015.1 |
| 20260902173729 | 25 | 84 | 9.7 | 32.2 | 0.03 | 0.15 | 0.15 | 91 | 1015.2 |
| 20260902173500 | 25 | 113 | 11.3 | 32.2 | 0.00 | 0.15 | 0.13 | 91 | 1015.4 |
| 20260902173000 | 25 | 71 | 9.7 | 27.4 | 0.00 | 0.13 | 0.13 | 91 | 1015.2 |
| 20260902172501 | 25 | 77 | 20.9 | 30.6 | 0.00 | 0.13 | 0.13 | 91 | 1015.1 |
| 20260902171731 | 25 | 119 | 12.9 | 30.6 | 0.00 | 0.13 | 0.13 | 91 | 1015.3 |
| 20260902171229 | 25 | 85 | 8.0 | 38.6 | 0.00 | 0.13 | 0.13 | 91 | 1015.1 |
| 20260902171000 | 25 | 98 | 17.7 | 38.6 | 0.00 | 0.13 | 0.13 | 91 | 1014.8 |
| 20260902170228 | 25 | 103 | 14.5 | 30.6 | 0.00 | 0.13 | 0.13 | 91 | 1014.9 |
| 20260902165729 | 25 | 107 | 12.9 | 32.2 | 0.00 | 0.13 | 0.13 | 91 | 1015.0 |
| 20260902165229 | 25 | 78 | 14.5 | 32.2 | 0.00 | 0.13 | 0.13 | 91 | 1014.9 |
| 20260902164959 | 25 | 98 | 20.9 | 27.4 | 0.00 | 0.13 | 0.13 | 91 | 1014.9 |
| 20260902164229 | 25 | 110 | 17.7 | 30.6 | 0.00 | 0.13 | 0.13 | 91 | 1014.5 |
| 20260902163729 | 25 | 70 | 17.7 | 37.0 | 0.00 | 0.13 | 0.13 | 91 | 1014.7 |
| 20260902163500 | 25 | 87 | 9.7 | 37.0 | 0.03 | 0.13 | 0.13 | 91 | 1014.6 |
| 20260902162729 | 25 | 96 | 16.1 | 37.0 | 0.03 | 0.13 | 0.13 | 91 | 1014.6 |
| 20260902162228 | 25 | 57 | 16.1 | 38.6 | 0.05 | 0.13 | 0.13 | 91 | 1014.6 |
| 20260902161729 | 25 | 56 | 9.7 | 38.6 | 0.08 | 0.13 | 0.13 | 91 | 1014.5 |
| 20260902161230 | 24 | 76 | 17.7 | 33.8 | 0.08 | 0.13 | 0.13 | 92 | 1014.6 |
| 20260902161000 | 24 | 73 | 19.3 | 32.2 | 0.08 | 0.13 | 0.13 | 92 | 1014.5 |
| 20260902160459 | 24 | 58 | 16.1 | 27.4 | 0.08 | 0.13 | 0.13 | 92 | 1014.5 |
| 20260902160000 | 24 | 44 | 14.5 | 27.4 | 0.08 | 0.13 | 0.13 | 92 | 1014.3 |
| 20260902155229 | 24 | 77 | 8.0 | 32.2 | 0.08 | 0.13 | 0.13 | 92 | 1014.4 |
| 20260902154735 | 24 | 112 | 16.1 | 32.2 | 0.08 | 0.13 | 0.13 | 92 | 1014.5 |
| 20260902154729 | 24 | 113 | 12.9 | 32.2 | 0.08 | 0.13 | 0.13 | 92 | 1014.2 |
| 20260902153734 | 24 | 104 | 6.4 | 33.8 | 0.10 | 0.10 | 0.10 | 92 | 1014.3 |
| 20260902153728 | 24 | 72 | 16.1 | 33.8 | 0.08 | 0.13 | 0.13 | 92 | 1014.4 |
| 20260902152730 | 24 | 47 | 22.5 | 41.8 | 0.08 | 0.10 | 0.10 | 92 | 1014.0 |
| 20260902152230 | 24 | 99 | 17.7 | 41.8 | 0.05 | 0.05 | 0.05 | 91 | 1014.2 |
| 20260902152003 | 24 | 60 | 24.1 | 37.0 | 0.03 | 0.05 | 0.05 | 91 | 1014.0 |
| 20260902151229 | 24 | 77 | 12.9 | 30.6 | 0.03 | 0.05 | 0.05 | 91 | 1013.8 |
| 20260902150729 | 24 | 60 | 12.9 | 30.6 | 0.05 | 0.05 | 0.05 | 92 | 1013.9 |
| 20260902150500 | 24 | 77 | 17.7 | 25.7 | 0.05 | 0.05 | 0.05 | 92 | 1013.6 |
| 20260902145732 | 24 | 98 | 9.7 | 25.7 | 0.05 | 0.05 | 0.05 | 91 | 1014.0 |
| 20260902145500 | 24 | 81 | 16.1 | 38.6 | 0.05 | 0.05 | 0.05 | 91 | 1014.1 |
| 20260902144729 | 24 | 84 | 14.5 | 38.6 | 0.05 | 0.05 | 0.05 | 91 | 1014.0 |
| 20260902144459 | 24 | 55 | 17.7 | 38.6 | 0.05 | 0.05 | 0.05 | 91 | 1014.0 |
| 20260902144336 | 24 | 128 | 17.7 | 32.2 | 0.05 | 0.05 | 0.05 | 91 | 1013.8 |
| 20260902143500 | 24 | 113 | 6.4 | 32.2 | 0.00 | 0.03 | 0.00 | 91 | 1014.0 |
| 20260902142729 | 24 | 58 | 12.9 | 38.6 | 0.00 | 0.03 | 0.00 | 91 | 1014.0 |
| 20260902142240 | 24 | 133 | 14.5 | 32.2 | 0.00 | 0.03 | 0.00 | 90 | 1014.1 |
| 20260902142234 | 24 | 106 | 16.1 | 38.6 | 0.00 | 0.03 | 0.00 | 91 | 1014.1 |
| 20260902141818 | 24 | 133 | 14.5 | 32.2 | 0.00 | 0.03 | 0.00 | 90 | 1014.1 |
| 20260902141500 | 24 | 66 | 9.7 | 33.8 | 0.00 | 0.03 | 0.00 | 90 | 1013.9 |
| 20260902140732 | 24 | 62 | 12.9 | 45.1 | 0.00 | 0.00 | 0.00 | 89 | 1014.1 |
| 20260902140230 | 25 | 99 | 22.5 | 45.1 | 0.00 | 0.00 | 0.00 | 88 | 1014.1 |
| 20260902135729 | 25 | 58 | 17.7 | 38.6 | 0.00 | 0.00 | 0.00 | 88 | 1014.2 |
| 20260902135229 | 25 | 61 | 14.5 | 38.6 | 0.00 | 0.00 | 0.00 | 87 | 1014.3 |
| 20260902134729 | 25 | 101 | 11.3 | 30.6 | 0.00 | 0.00 | 0.00 | 87 | 1014.2 |
| 20260902134459 | 25 | 26 | 8.0 | 30.6 | 0.00 | 0.00 | 0.00 | 86 | 1014.0 |
| 20260902133959 | 25 | 128 | 17.7 | 37.0 | 0.00 | 0.00 | 0.00 | 87 | 1014.0 |
| 20260902133500 | 25 | 82 | 16.1 | 37.0 | 0.00 | 0.00 | 0.00 | 87 | 1014.0 |
| 20260902132729 | 25 | 46 | 20.9 | 32.2 | 0.00 | 0.00 | 0.00 | 87 | 1013.9 |
| 20260902132228 | 25 | 56 | 16.1 | 30.6 | 0.00 | 0.00 | 0.00 | 87 | 1014.0 |
| 20260902131948 | 25 | 58 | 12.9 | 30.6 | 0.00 | 0.00 | 0.00 | 87 | 1013.9 |
| 20260902131217 | 25 | 79 | 9.7 | 25.7 | 0.00 | 0.00 | 0.00 | 87 | 1014.0 |
| 20260902130717 | 25 | 83 | 8.0 | 25.7 | 0.00 | 0.00 | 0.00 | 87 | 1014.0 |
| 20260902130217 | 25 | 90 | 12.9 | 32.2 | 0.00 | 0.00 | 0.00 | 87 | 1014.1 |
| 20260902125948 | 25 | 73 | 19.3 | 32.2 | 0.00 | 0.00 | 0.00 | 87 | 1014.2 |
| 20260902125219 | 25 | 78 | 17.7 | 33.8 | 0.00 | 0.00 | 0.00 | 86 | 1014.1 |
| 20260902124718 | 25 | 73 | 6.4 | 33.8 | 0.00 | 0.00 | 0.00 | 86 | 1014.2 |
| 20260902124217 | 25 | 85 | 17.7 | 22.5 | 0.00 | 0.00 | 0.00 | 86 | 1014.3 |
| 20260902123705 | 25 | 30 | 6.4 | 27.4 | 0.00 | 0.00 | 0.00 | 86 | 1014.5 |
| 20260902123204 | 25 | 103 | 12.9 | 27.4 | 0.00 | 0.00 | 0.00 | 86 | 1014.4 |
| 20260902122705 | 25 | 97 | 17.7 | 27.4 | 0.00 | 0.00 | 0.00 | 87 | 1014.3 |
| 20260902122204 | 25 | 30 | 9.7 | 24.1 | 0.00 | 0.00 | 0.00 | 87 | 1014.4 |
| 20260902121704 | 25 | 47 | 11.3 | 25.7 | 0.00 | 0.00 | 0.00 | 87 | 1014.5 |
| 20260902121205 | 25 | 97 | 14.5 | 27.4 | 0.00 | 0.00 | 0.00 | 87 | 1014.7 |
| 20260902120936 | 25 | 79 | 14.5 | 32.2 | 0.00 | 0.00 | 0.00 | 87 | 1014.6 |
| 20260902120205 | 25 | 95 | 12.9 | 32.2 | 0.00 | 0.00 | 0.00 | 86 | 1014.5 |
| 20260902115705 | 25 | 73 | 12.9 | 33.8 | 0.00 | 0.00 | 0.00 | 87 | 1014.7 |
| 20260902115437 | 25 | 73 | 9.7 | 33.8 | 0.00 | 0.00 | 0.00 | 87 | 1014.5 |
| 20260902114937 | 25 | 69 | 20.9 | 30.6 | 0.00 | 0.00 | 0.00 | 87 | 1014.7 |
| 20260902114204 | 25 | 79 | 1.6 | 25.7 | 0.00 | 0.00 | 0.00 | 87 | 1014.7 |
| 20260902113704 | 25 | 89 | 17.7 | 25.7 | 0.00 | 0.00 | 0.00 | 88 | 1014.6 |
| 20260902113205 | 25 | 70 | 11.3 | 24.1 | 0.00 | 0.00 | 0.00 | 88 | 1014.9 |
| 20260902112704 | 25 | 84 | 14.5 | 27.4 | 0.00 | 0.00 | 0.00 | 88 | 1014.9 |
| 20260902112435 | 24 | 109 | 14.5 | 33.8 | 0.00 | 0.00 | 0.00 | 87 | 1014.7 |
| 20260902111704 | 25 | 119 | 20.9 | 33.8 | 0.00 | 0.00 | 0.00 | 87 | 1014.9 |
| 20260902111205 | 25 | 88 | 11.3 | 40.2 | 0.00 | 0.00 | 0.00 | 86 | 1015.1 |
| 20260902110705 | 25 | 95 | 12.9 | 40.2 | 0.00 | 0.00 | 0.00 | 85 | 1015.1 |
| 20260902110204 | 26 | 94 | 16.1 | 27.4 | 0.00 | 0.00 | 0.00 | 85 | 1015.0 |
| 20260902105705 | 26 | 76 | 9.7 | 27.4 | 0.00 | 0.00 | 0.00 | 85 | 1015.1 |
| 20260902105204 | 25 | 58 | 16.1 | 27.4 | 0.00 | 0.00 | 0.00 | 84 | 1015.1 |
| 20260902104936 | 25 | 94 | 19.3 | 27.4 | 0.00 | 0.00 | 0.00 | 83 | 1015.2 |
| 20260902104205 | 25 | 128 | 11.3 | 27.4 | 0.00 | 0.00 | 0.00 | 83 | 1015.1 |
| 20260902103704 | 25 | 85 | 12.9 | 33.8 | 0.00 | 0.00 | 0.00 | 84 | 1015.0 |
| 20260902103204 | 25 | 69 | 14.5 | 33.8 | 0.00 | 0.00 | 0.00 | 83 | 1015.4 |
| 20260902102704 | 25 | 64 | 12.9 | 27.4 | 0.00 | 0.00 | 0.00 | 84 | 1015.2 |
| 20260902102204 | 25 | 93 | 8.0 | 24.1 | 0.00 | 0.00 | 0.00 | 84 | 1015.4 |
| 20260902101936 | 25 | 96 | 9.7 | 30.6 | 0.00 | 0.00 | 0.00 | 85 | 1015.3 |
| 20260902101205 | 25 | 72 | 12.9 | 30.6 | 0.00 | 0.00 | 0.00 | 84 | 1015.3 |
| 20260902100704 | 25 | 87 | 14.5 | 27.4 | 0.00 | 0.00 | 0.00 | 84 | 1015.2 |
| 20260902100436 | 25 | 80 | 6.4 | 25.7 | 0.00 | 0.00 | 0.00 | 84 | 1015.1 |
| 20260902095705 | 25 | 82 | 9.7 | 27.4 | 0.00 | 0.00 | 0.00 | 84 | 1015.5 |
| 20260902095205 | 25 | 119 | 8.0 | 38.6 | 0.00 | 0.00 | 0.00 | 84 | 1015.2 |
| 20260902094653 | 25 | 101 | 16.1 | 38.6 | 0.00 | 0.00 | 0.00 | 83 | 1015.4 |
| 20260902094152 | 25 | 77 | 9.7 | 25.7 | 0.00 | 0.00 | 0.00 | 84 | 1015.2 |
| 20260902093652 | 25 | 91 | 14.5 | 25.7 | 0.00 | 0.00 | 0.00 | 83 | 1015.3 |
| 20260902093153 | 25 | 105 | 16.1 | 27.4 | 0.00 | 0.00 | 0.00 | 83 | 1015.6 |
| 20260902092653 | 25 | 87 | 12.9 | 27.4 | 0.00 | 0.00 | 0.00 | 83 | 1015.7 |
| 20260902092152 | 25 | 101 | 9.7 | 27.4 | 0.00 | 0.00 | 0.00 | 82 | 1015.6 |
| 20260902091654 | 25 | 101 | 8.0 | 24.1 | 0.00 | 0.00 | 0.00 | 83 | 1015.6 |
| 20260902091153 | 25 | 93 | 9.7 | 25.7 | 0.00 | 0.00 | 0.00 | 83 | 1015.8 |
| 20260902090653 | 25 | 125 | 16.1 | 25.7 | 0.00 | 0.00 | 0.00 | 83 | 1015.7 |
| 20260902090424 | 25 | 75 | 6.4 | 27.4 | 0.00 | 0.00 | 0.00 | 83 | 1015.9 |
| 20260902085653 | 25 | 109 | 9.7 | 32.2 | 0.00 | 0.00 | 0.00 | 83 | 1015.9 |
| 20260902085155 | 25 | 94 | 12.9 | 33.8 | 0.00 | 0.00 | 0.00 | 83 | 1015.8 |
| 20260902084653 | 25 | 79 | 16.1 | 33.8 | 0.00 | 0.00 | 0.00 | 82 | 1015.8 |
| 20260902084152 | 25 | 106 | 19.3 | 30.6 | 0.00 | 0.00 | 0.00 | 83 | 1016.0 |
| 20260902083652 | 25 | 118 | 17.7 | 25.7 | 0.00 | 0.00 | 0.00 | 83 | 1015.9 |
| 20260902083152 | 25 | 88 | 14.5 | 25.7 | 0.00 | 0.00 | 0.00 | 83 | 1015.7 |
| 20260902082655 | 25 | 54 | 6.4 | 27.4 | 0.00 | 0.00 | 0.00 | 84 | 1015.7 |
| 20260902082153 | 25 | 115 | 14.5 | 27.4 | 0.00 | 0.00 | 0.00 | 84 | 1015.8 |
| 20260902081653 | 25 | 59 | 12.9 | 33.8 | 0.00 | 0.00 | 0.00 | 83 | 1016.0 |
| 20260902081424 | 25 | 101 | 20.9 | 33.8 | 0.00 | 0.00 | 0.00 | 84 | 1015.9 |
| 20260902081301 | 25 | 87 | 11.3 | 30.6 | 0.00 | 0.00 | 0.00 | 84 | 1016.2 |
| 20260902080425 | 25 | 102 | 16.1 | 30.6 | 0.00 | 0.00 | 0.00 | 84 | 1015.9 |
| 20260902075653 | 25 | 52 | 11.3 | 30.6 | 0.00 | 0.00 | 0.00 | 85 | 1016.0 |
| 20260902075152 | 25 | 82 | 11.3 | 30.6 | 0.00 | 0.00 | 0.00 | 85 | 1016.2 |